• In Russia
  • List of Countries
  • For 7 days
  • Water Temperature
  • Satellite Maps
  • Weather Map
  • Weather Widgets
  • user-avatar
    Login

    Hourly Weather Stepanakert

    Today, 28 July, Friday

    Time Temperature Precipitation Wind Pressure Humidity
    00:00 +25°C° 0 mm 2 mps 691 mmHg 52%
    01:00 +24°C° 0 mm 2 mps 691 mmHg 52%
    02:00 +24°C° 0 mm 2 mps 691 mmHg 52%
    03:00 +24°C° 0 mm 2 mps 691 mmHg 53%
    04:00 +24°C° 0 mm 2 mps 691 mmHg 52%
    05:00 +25°C° 0 mm 1 mps 691 mmHg 51%
    06:00 +25°C° 0 mm 1 mps 691 mmHg 50%
    07:00 +27°C° 0 mm 1 mps 692 mmHg 44%
    08:00 +29°C° 0 mm 2 mps 692 mmHg 38%
    09:00 +32°C° 0 mm 2 mps 692 mmHg 32%
    10:00 +34°C° 0 mm 2 mps 692 mmHg 30%
    11:00 +35°C° 0 mm 3 mps 692 mmHg 27%
    12:00 +36°C° 0 mm 3 mps 691 mmHg 25%
    13:00 +37°C° 0 mm 3 mps 691 mmHg 25%
    14:00 +37°C° 0 mm 3 mps 691 mmHg 24%
    15:00 +38°C° 0 mm 3 mps 690 mmHg 23%
    16:00 +37°C° 0 mm 3 mps 690 mmHg 26%
    17:00 +36°C° 0 mm 3 mps 690 mmHg 28%
    18:00 +35°C° 0 mm 2 mps 690 mmHg 30%
    19:00 +32°C° 0 mm 2 mps 690 mmHg 35%
    20:00 +30°C° 0 mm 2 mps 690 mmHg 39%
    21:00 +28°C° 0 mm 2 mps 690 mmHg 44%
    22:00 +27°C° 0 mm 2 mps 690 mmHg 45%
    23:00 +27°C° 0 mm 2 mps 690 mmHg 45%

    Tomorrow, 29 July, Saturday

    Time Temperature Precipitation Wind Pressure Humidity
    00:00 +26°C° 0 mm 2 mps 690 mmHg 46%
    01:00 +26°C° 0 mm 2 mps 690 mmHg 46%
    02:00 +26°C° 0 mm 2 mps 690 mmHg 46%
    03:00 +25°C° 0 mm 2 mps 690 mmHg 46%
    04:00 +26°C° 0 mm 2 mps 690 mmHg 46%
    05:00 +26°C° 0 mm 2 mps 690 mmHg 45%
    06:00 +26°C° 0 mm 2 mps 690 mmHg 45%
    07:00 +28°C° 0 mm 2 mps 691 mmHg 40%
    08:00 +31°C° 0 mm 2 mps 691 mmHg 35%
    09:00 +34°C° 0 mm 2 mps 691 mmHg 31%
    10:00 +35°C° 0 mm 2 mps 691 mmHg 28%
    11:00 +37°C° 0 mm 3 mps 691 mmHg 26%
    12:00 +38°C° 0 mm 3 mps 691 mmHg 24%
    13:00 +38°C° 0 mm 3 mps 690 mmHg 23%
    14:00 +39°C° 0 mm 3 mps 690 mmHg 23%
    15:00 +39°C° 0 mm 3 mps 690 mmHg 22%
    16:00 +38°C° 0 mm 3 mps 689 mmHg 25%
    17:00 +38°C° 0 mm 2 mps 689 mmHg 27%
    18:00 +37°C° 0 mm 2 mps 689 mmHg 29%
    19:00 +35°C° 0 mm 2 mps 689 mmHg 33%
    20:00 +32°C° 0 mm 2 mps 690 mmHg 38%
    21:00 +29°C° 0 mm 2 mps 690 mmHg 42%
    22:00 +29°C° 0 mm 2 mps 690 mmHg 44%
    23:00 +28°C° 0 mm 2 mps 690 mmHg 46%

    Day after tomorrow, 30 July, Sunday

    Time Temperature Precipitation Wind Pressure Humidity
    00:00 +28°C° 0 mm 2 mps 691 mmHg 48%
    01:00 +27°C° 0 mm 2 mps 691 mmHg 49%
    02:00 +26°C° 0 mm 2 mps 691 mmHg 51%
    03:00 +26°C° 0 mm 2 mps 691 mmHg 52%
    04:00 +26°C° 0 mm 2 mps 691 mmHg 51%
    05:00 +26°C° 0 mm 2 mps 692 mmHg 51%
    06:00 +26°C° 0 mm 1 mps 692 mmHg 51%
    07:00 +28°C° 0 mm 2 mps 692 mmHg 47%
    08:00 +30°C° 0 mm 2 mps 693 mmHg 43%
    09:00 +31°C° 0 mm 3 mps 693 mmHg 39%
    10:00 +34°C° 0 mm 3 mps 693 mmHg 37%
    11:00 +35°C° 0 mm 3 mps 693 mmHg 34%
    12:00 +36°C° 0 mm 3 mps 693 mmHg 32%
    13:00 +36°C° 0 mm 3 mps 692 mmHg 31%
    14:00 +37°C° 0 mm 3 mps 692 mmHg 31%
    15:00 +37°C° 0 mm 4 mps 692 mmHg 30%
    16:00 +36°C° 0 mm 4 mps 692 mmHg 33%
    17:00 +35°C° 0 mm 4 mps 692 mmHg 35%
    18:00 +34°C° 0 mm 4 mps 692 mmHg 38%
    19:00 +31°C° 0 mm 3 mps 692 mmHg 44%
    20:00 +29°C° 0 mm 3 mps 692 mmHg 49%
    21:00 +27°C° 0 mm 2 mps 692 mmHg 55%
    22:00 +27°C° 0 mm 2 mps 693 mmHg 56%
    23:00 +26°C° 0 mm 2 mps 693 mmHg 57%

    31 July, Monday

    Time Temperature Precipitation Wind Pressure Humidity
    00:00 +26°C° 0 mm 2 mps 693 mmHg 57%
    01:00 +25°C° 0 mm 2 mps 693 mmHg 59%
    02:00 +25°C° 0 mm 1 mps 693 mmHg 60%
    03:00 +24°C° 0 mm 1 mps 693 mmHg 61%
    04:00 +25°C° 0 mm 1 mps 693 mmHg 61%
    05:00 +25°C° 0 mm 1 mps 693 mmHg 60%
    06:00 +25°C° 0 mm 1 mps 694 mmHg 60%
    07:00 +27°C° 0 mm 2 mps 694 mmHg 54%
    08:00 +28°C° 0 mm 2 mps 694 mmHg 49%
    09:00 +30°C° 0 mm 3 mps 695 mmHg 44%
    10:00 +31°C° 0 mm 3 mps 695 mmHg 41%
    11:00 +33°C° 0 mm 4 mps 694 mmHg 39%
    12:00 +35°C° 0 mm 4 mps 694 mmHg 36%
    13:00 +35°C° 0.1 mm 4 mps 694 mmHg 35%
    14:00 +35°C° 0.1 mm 4 mps 693 mmHg 35%
    15:00 +36°C° 0.1 mm 5 mps 693 mmHg 35%
    16:00 +35°C° 0 mm 5 mps 693 mmHg 37%
    17:00 +33°C° 0 mm 5 mps 693 mmHg 40%
    18:00 +32°C° 0 mm 5 mps 693 mmHg 42%
    19:00 +29°C° 0 mm 4 mps 693 mmHg 48%
    20:00 +28°C° 0 mm 3 mps 694 mmHg 53%
    21:00 +26°C° 0 mm 2 mps 694 mmHg 59%
    22:00 +25°C° 0 mm 2 mps 694 mmHg 61%
    23:00 +25°C° 0 mm 2 mps 694 mmHg 62%

    1 August, Tuesday

    Time Temperature Precipitation Wind Pressure Humidity
    00:00 +24°C° 0 mm 2 mps 695 mmHg 64%
    01:00 +24°C° 0 mm 1 mps 695 mmHg 65%
    02:00 +24°C° 0 mm 1 mps 695 mmHg 65%
    03:00 +23°C° 0 mm 1 mps 695 mmHg 66%
    04:00 +24°C° 0 mm 1 mps 695 mmHg 65%
    05:00 +24°C° 0 mm 1 mps 695 mmHg 64%
    06:00 +24°C° 0 mm 1 mps 696 mmHg 63%
    07:00 +26°C° 0 mm 2 mps 696 mmHg 56%
    08:00 +28°C° 0 mm 3 mps 696 mmHg 49%
    09:00 +30°C° 0 mm 3 mps 696 mmHg 42%
    10:00 +32°C° 0 mm 4 mps 696 mmHg 40%
    11:00 +33°C° 0 mm 4 mps 696 mmHg 37%
    12:00 +34°C° 0 mm 4 mps 696 mmHg 34%
    13:00 +34°C° 0.1 mm 4 mps 695 mmHg 34%
    14:00 +35°C° 0.1 mm 4 mps 695 mmHg 33%
    15:00 +35°C° 0.1 mm 4 mps 695 mmHg 33%
    16:00 +34°C° 0 mm 4 mps 695 mmHg 35%
    17:00 +33°C° 0 mm 4 mps 695 mmHg 38%
    18:00 +32°C° 0 mm 4 mps 695 mmHg 41%
    19:00 +29°C° 0 mm 4 mps 695 mmHg 46%
    20:00 +27°C° 0 mm 3 mps 695 mmHg 52%
    21:00 +25°C° 0 mm 2 mps 695 mmHg 58%
    22:00 +25°C° 0 mm 2 mps 695 mmHg 60%
    23:00 +24°C° 0 mm 2 mps 696 mmHg 62%

    2 August, Wednesday

    Time Temperature Precipitation Wind Pressure Humidity
    00:00 +23°C° 0 mm 2 mps 696 mmHg 64%
    01:00 +23°C° 0 mm 1 mps 695 mmHg 66%
    02:00 +23°C° 0 mm 1 mps 695 mmHg 67%
    03:00 +22°C° 0 mm 1 mps 695 mmHg 68%
    04:00 +23°C° 0 mm 1 mps 696 mmHg 67%
    05:00 +23°C° 0 mm 1 mps 696 mmHg 65%
    06:00 +24°C° 0 mm 1 mps 696 mmHg 64%
    07:00 +25°C° 0 mm 2 mps 696 mmHg 57%
    08:00 +27°C° 0 mm 2 mps 697 mmHg 50%
    09:00 +29°C° 0 mm 3 mps 697 mmHg 43%
    10:00 +30°C° 0 mm 3 mps 697 mmHg 41%
    11:00 +32°C° 0 mm 4 mps 696 mmHg 39%
    12:00 +33°C° 0 mm 4 mps 696 mmHg 36%
    13:00 +34°C° 0 mm 4 mps 696 mmHg 36%
    14:00 +34°C° 0 mm 4 mps 696 mmHg 36%
    15:00 +35°C° 0 mm 4 mps 695 mmHg 36%
    16:00 +34°C° 0 mm 4 mps 695 mmHg 39%
    17:00 +33°C° 0 mm 4 mps 695 mmHg 42%
    18:00 +32°C° 0 mm 4 mps 695 mmHg 45%
    19:00 +29°C° 0 mm 3 mps 695 mmHg 50%
    20:00 +27°C° 0 mm 3 mps 695 mmHg 55%
    21:00 +25°C° 0 mm 2 mps 695 mmHg 60%
    22:00 +24°C° 0 mm 2 mps 695 mmHg 61%
    23:00 +24°C° 0 mm 2 mps 695 mmHg 63%
    Show more